Location: Eschertshofen
(49.3064°N, 11.5756°E)
Time: 21:47:44
(UTC+00:00)

Sich 1 Rocket - Pass Details

Date: 18 September 2020
Orbit: 616 x 653 km, 82.5° (Epoch: 31 October)

Event Time Altitude Azimuth Distance (km) Brightness Sun altitude
Rises 17:43:28 0° 159° (SSE) 2,917 6.7 -4.7°
Reaches altitude 10° 17:45:54 10° 148° (SSE) 2,021 5.8 -5.1°
Maximum altitude 17:49:45 29° 89° (E) 1,192 4.5 -5.7°
Drops below altitude 10° 17:53:39 10° 30° (NNE) 2,054 6.0 -6.3°
Sets 17:56:08 0° 19° (NNE) 2,975 7.0 -6.7°
